Theta_e
311 310 311 311 311 315 320 319 316 317 318 313 315 317 317 320 320 320 321 323 325 335 337 336 335 327 331 340 339 340 345 346 344 338 341 351 352 351 352 350 350 346 345 341 335 334 333 334 334 333 331 328 325 327 332 336 336 335 333 331 325 323 324 319 313 309 311 311 311 312 316 319 319 319 319 323 329 331 332 335 337 337 338 338 338 338 339 339 338 338 337 336 331 322 316 312 311
310 310 310 311 313 317 322 320 315 316 315 312 315 318 318 320 319 320 324 328 333 340 341 338 335 332 337 342 340 338 346 349 349 349 350 351 350 351 351 349 349 346 346 344 336 334 334 333 334 333 332 329 324 323 327 333 335 334 332 328 322 321 318 313 310 310 311 311 311 312 316 319 320 322 322 325 330 333 333 336 338 338 338 339 339 339 339 338 338 337 336 333 323 314 311 311 311
310 311 314 315 316 319 322 318 315 313 313 312 315 319 319 319 321 322 326 328 331 338 339 338 336 338 340 338 339 340 346 349 350 350 350 350 351 351 351 349 349 346 346 344 337 335 335 333 334 334 333 330 325 321 322 328 332 332 329 323 319 316 312 310 310 310 311 312 311 313 317 319 321 323 324 327 332 336 336 337 339 338 338 339 338 339 338 337 336 334 332 329 319 312 312 311 311
309 311 316 321 320 317 319 318 316 314 313 312 314 319 318 319 321 322 323 323 326 333 336 338 339 341 343 340 341 344 348 350 350 350 350 350 351 350 350 349 349 348 346 344 340 337 335 333 334 334 333 330 324 321 320 324 328 328 325 320 316 312 310 310 310 311 312 312 311 312 316 319 321 323 325 328 332 336 337 337 338 338 338 338 338 337 336 334 333 330 328 323 316 313 312 311 310
310 311 314 321 322 318 319 318 317 315 313 314 314 317 318 320 321 321 323 322 326 331 333 337 339 339 342 347 349 348 349 351 350 349 350 349 350 350 350 348 349 348 346 344 342 340 335 334 334 334 334 328 322 320 319 321 324 324 321 317 313 310 310 310 310 311 312 312 312 312 315 318 320 322 324 326 330 335 336 337 338 339 338 337 335 333 332 331 329 325 321 317 314 313 311 309 309
313 316 316 319 321 320 318 315 315 314 315 318 316 318 319 320 321 321 322 322 327 332 331 334 338 338 342 350 351 351 349 351 350 349 350 349 350 350 349 349 349 348 346 344 343 342 335 334 334 334 333 326 320 318 319 321 321 321 318 316 312 310 310 310 310 311 312 313 312 311 314 318 320 322 322 324 327 332 335 337 338 338 337 336 333 331 330 330 326 322 318 315 315 312 310 310 310
317 320 318 317 319 318 317 314 315 315 317 318 317 318 319 321 322 321 322 322 326 331 329 332 338 337 342 348 349 349 348 349 349 349 349 349 350 349 349 349 350 348 346 344 343 341 335 334 335 334 332 324 318 319 320 319 320 318 315 314 312 310 310 310 311 311 312 313 313 312 313 316 318 321 321 322 323 327 332 334 336 336 335 334 332 329 328 327 324 320 317 316 315 311 310 310 310
317 321 320 318 318 318 316 316 317 318 319 318 318 319 319 321 322 321 321 322 324 329 330 332 338 336 341 347 349 348 346 348 348 349 349 349 350 349 349 350 350 348 345 343 343 340 335 335 335 335 333 324 318 319 319 318 319 315 314 314 312 311 310 310 310 310 312 313 313 312 313 314 316 318 320 321 322 324 328 330 333 334 334 333 330 326 325 324 322 320 318 317 313 310 311 310 311
316 319 319 316 318 317 315 317 317 319 319 318 318 318 320 321 321 321 320 322 321 324 330 332 338 338 340 346 351 348 347 348 348 350 350 350 350 349 349 350 350 348 345 343 344 339 335 335 334 335 333 325 318 319 319 317 316 314 314 314 312 311 310 311 311 311 311 312 313 313 313 313 314 316 317 320 322 324 326 328 330 332 331 329 327 324 324 324 321 319 319 317 313 311 311 311 312
318 317 318 316 317 315 313 315 317 318 318 317 318 319 320 320 320 322 320 323 322 322 333 337 339 339 338 345 350 349 347 347 349 350 351 351 350 349 348 350 350 348 345 344 343 339 337 336 335 335 334 325 319 320 319 316 314 314 314 314 314 312 310 311 311 310 311 312 313 313 314 313 313 314 315 317 320 322 324 325 327 327 326 324 324 324 325 323 321 319 319 318 315 312 311 310 311
317 316 317 316 314 313 312 314 316 317 317 317 319 319 320 320 320 320 320 322 323 325 338 341 338 337 339 348 351 348 347 347 349 350 351 351 350 349 348 349 350 348 346 345 343 340 338 336 335 335 334 327 320 320 320 316 315 314 314 314 315 314 312 312 311 311 311 312 312 313 314 313 313 312 313 314 316 320 322 323 323 323 322 321 322 324 325 323 321 320 320 319 316 314 313 311 310
317 316 315 314 313 314 314 314 315 316 316 317 319 319 319 320 320 320 321 321 324 330 339 340 338 336 337 347 350 346 347 348 349 350 351 351 350 349 348 348 349 348 346 345 344 341 339 337 337 336 334 329 322 321 321 319 317 315 315 315 314 315 314 313 312 312 311 311 312 312 313 313 313 312 313 313 314 316 319 321 321 321 321 321 321 323 324 324 324 322 322 321 318 316 314 312 311
317 317 315 313 315 316 315 314 315 315 316 318 319 320 321 323 321 320 322 322 328 332 336 340 340 337 339 349 350 346 347 348 349 351 351 350 351 349 348 348 349 348 345 345 344 342 340 339 338 337 335 331 324 322 322 321 319 318 317 315 315 314 314 314 313 313 312 312 312 312 313 313 313 313 312 313 313 313 315 318 319 319 320 320 320 322 323 325 327 325 325 323 321 319 316 315 313
316 317 316 314 317 316 315 314 314 315 316 319 319 320 326 328 324 321 323 325 331 340 342 344 342 337 341 348 349 347 347 347 349 350 351 350 350 349 348 348 348 347 345 345 345 342 342 340 338 339 337 332 327 323 322 321 320 319 317 315 315 315 314 314 313 313 314 313 313 314 313 312 312 313 313 313 313 312 314 315 317 317 318 318 318 320 321 325 328 327 327 326 324 323 320 319 318
317 317 316 315 316 315 314 315 315 316 316 319 318 320 329 333 330 328 332 332 339 348 346 343 343 341 341 345 348 348 347 348 349 349 349 348 348 348 347 347 348 347 345 346 346 343 342 341 339 339 338 335 330 325 321 321 320 317 317 317 319 320 319 317 316 314 313 314 314 315 315 312 311 312 313 313 313 312 313 315 316 316 316 316 317 319 320 323 327 328 328 327 326 324 323 322 322
317 317 316 315 315 314 314 315 317 317 317 319 319 321 329 335 337 338 342 341 344 346 346 344 344 346 348 349 349 347 346 347 348 348 348 347 348 347 347 348 347 347 346 345 346 344 342 341 341 339 338 338 335 330 324 321 320 319 321 323 325 327 326 325 323 319 317 317 316 316 315 313 312 312 313 314 313 313 312 314 316 316 315 314 315 317 318 321 324 327 327 328 327 325 323 323 323
317 317 316 315 314 314 314 316 317 317 318 320 319 321 327 335 340 342 342 343 343 344 347 348 346 346 347 348 347 346 347 347 347 348 347 347 347 347 347 347 347 347 345 345 344 343 342 341 341 339 339 340 339 337 330 322 323 325 326 329 329 330 331 331 330 328 325 323 322 319 316 315 313 311 316 317 313 313 313 313 315 316 316 314 315 316 317 319 321 324 326 326 327 326 324 323 323
316 316 315 315 315 315 316 317 318 318 318 319 319 320 324 333 339 341 341 342 344 345 347 347 346 345 344 346 345 346 348 347 347 347 347 347 347 347 347 346 347 347 346 345 343 342 342 341 340 340 341 341 340 339 335 329 327 329 330 331 332 332 333 332 332 331 330 330 328 326 324 323 320 319 322 321 317 315 313 314 315 316 318 316 315 319 322 321 319 321 324 325 327 326 324 322 323
316 317 316 315 316 316 317 318 319 319 318 319 320 320 322 332 338 339 338 338 342 341 344 347 347 345 344 345 345 346 347 348 347 346 347 347 346 346 346 347 347 347 346 345 344 342 342 341 340 341 342 341 341 340 339 335 331 332 333 333 333 334 333 334 334 333 335 336 333 332 334 333 331 331 330 327 323 318 313 314 315 315 319 318 317 319 324 325 322 321 321 324 326 326 325 324 324
316 318 316 315 317 317 317 318 318 318 318 319 319 319 321 330 333 336 335 334 337 335 338 345 348 347 345 345 345 346 346 347 347 346 346 345 345 346 346 347 346 346 346 346 345 343 342 342 341 342 342 341 341 339 340 339 335 336 338 335 336 337 336 336 337 337 338 339 337 336 337 337 336 335 334 331 326 319 313 313 313 314 317 318 319 319 322 325 325 325 323 323 324 327 329 329 330
317 318 315 317 317 316 316 317 319 318 318 317 318 319 318 323 325 331 334 330 331 332 334 338 346 348 345 345 345 345 346 346 346 345 345 344 344 345 345 346 346 346 346 346 345 343 342 343 341 342 342 340 341 339 340 341 338 339 339 338 339 340 339 338 339 339 339 339 338 338 338 337 336 336 335 334 330 324 319 315 312 313 314 316 320 321 322 323 325 327 326 325 325 329 333 333 333
317 317 315 318 317 315 317 317 318 317 317 318 318 317 317 319 321 328 333 329 330 336 337 339 345 347 344 345 345 345 345 346 345 345 345 344 344 345 345 345 346 346 346 346 345 343 342 343 342 342 341 339 340 339 340 340 339 340 340 340 340 340 339 339 340 340 340 339 338 339 338 337 336 337 336 336 334 332 327 320 317 316 314 314 317 321 322 323 327 329 327 328 329 332 333 329 328
316 316 316 318 316 316 318 317 317 317 318 317 317 316 316 318 320 328 333 331 335 339 340 342 347 345 344 345 345 345 345 345 345 345 345 344 344 344 344 344 345 346 346 347 346 345 344 344 343 341 340 339 339 340 340 340 340 341 342 341 341 341 340 340 341 340 339 339 338 338 338 337 336 336 336 335 335 335 332 325 323 324 321 316 313 319 323 323 328 332 330 331 332 333 332 326 325
315 315 317 317 317 317 317 317 317 317 317 317 317 316 317 318 319 327 331 333 338 340 342 345 344 343 344 345 345 345 345 345 345 344 345 344 343 344 343 343 344 344 345 345 345 345 344 344 342 341 340 340 340 341 341 342 342 342 343 341 341 342 341 341 341 340 339 339 339 338 337 337 337 337 336 335 334 336 335 329 326 327 327 321 314 317 322 322 328 333 332 332 331 333 333 329 328
314 314 317 317 317 317 316 317 317 317 317 316 316 316 317 317 318 322 326 336 340 342 345 344 343 342 344 345 345 345 345 345 345 345 344 344 343 343 343 343 343 343 343 343 344 344 344 343 343 341 340 340 341 341 341 342 342 342 341 340 340 340 340 341 341 340 340 340 339 338 337 337 337 337 336 335 334 334 335 332 328 326 327 326 319 316 318 319 326 332 332 332 331 332 332 330 330
315 314 316 317 317 317 316 317 317 317 316 317 316 316 317 316 317 319 325 338 341 342 346 345 344 344 345 345 344 344 345 345 345 345 345 344 344 344 343 342 342 342 341 342 343 342 343 342 343 341 340 341 341 341 341 341 340 340 340 340 339 338 339 340 339 339 338 339 338 337 338 337 337 338 336 335 334 333 334 333 329 327 326 326 324 319 315 313 320 329 331 332 332 332 332 330 329
317 316 316 317 316 317 317 317 317 317 317 317 316 316 317 316 317 317 325 337 340 344 347 346 345 346 345 344 343 343 344 344 344 344 344 344 344 344 343 342 342 342 341 341 341 341 341 341 342 341 340 340 341 341 341 341 340 339 339 339 338 338 339 338 338 338 337 337 336 337 337 337 336 337 337 335 333 332 333 333 331 329 328 325 324 321 315 311 315 324 330 331 333 333 333 332 330
317 316 316 316 317 317 317 317 317 317 317 317 316 317 317 315 316 319 329 338 342 345 347 347 347 346 345 344 343 343 343 344 344 344 344 344 344 344 343 343 343 342 341 341 342 342 342 341 341 340 340 339 339 340 340 340 340 338 338 338 337 337 337 337 336 336 336 336 336 336 337 335 335 336 336 335 333 331 330 333 333 332 331 326 325 324 319 315 314 321 328 329 331 333 333 332 331
316 316 316 316 316 316 316 317 316 317 317 316 316 316 316 316 316 322 333 341 344 345 346 346 347 347 345 344 343 342 344 344 344 344 344 343 343 343 342 341 342 342 342 341 341 341 341 341 341 340 340 339 338 337 338 338 338 337 338 338 337 336 336 336 336 334 334 335 334 334 335 335 335 333 334 334 333 331 328 330 332 332 332 329 328 327 324 318 316 319 325 326 329 331 332 332 331
315 315 315 315 315 315 316 317 316 317 316 315 316 314 315 317 317 323 335 342 344 342 341 342 345 346 346 344 342 342 344 344 344 344 344 343 343 342 341 341 342 342 342 341 341 340 339 340 341 340 340 338 338 337 336 337 337 337 338 337 336 336 336 335 334 333 332 333 333 334 334 333 333 332 333 333 332 331 329 328 328 329 331 330 329 329 328 323 319 321 326 327 327 329 332 331 330
314 314 315 315 314 314 317 317 316 317 315 315 316 314 316 318 317 323 334 340 338 335 334 337 343 346 346 345 342 343 344 344 344 344 344 343 342 342 342 343 342 341 340 340 340 339 338 338 339 340 339 338 338 337 336 336 336 336 337 337 336 336 335 334 334 333 332 331 332 334 334 332 332 331 332 332 331 331 331 330 328 328 330 331 330 329 328 327 324 323 327 328 327 328 331 331 330
314 313 312 313 313 314 316 317 317 317 315 315 316 314 317 318 317 325 333 336 336 331 329 333 341 345 345 344 343 343 344 344 344 344 344 343 343 342 342 343 342 341 340 338 337 336 336 336 337 338 338 337 338 337 336 336 336 336 336 336 336 335 334 335 335 334 333 332 332 333 334 332 331 332 332 333 332 331 331 332 331 329 329 330 331 330 328 329 328 327 326 324 326 329 331 331 331
314 313 311 312 313 314 314 315 317 317 316 316 316 316 318 318 318 327 335 335 333 331 329 332 340 345 345 344 343 344 343 345 345 345 344 344 343 343 342 342 341 340 339 338 337 336 336 335 335 336 337 338 338 338 336 335 335 334 335 336 336 335 335 336 336 334 333 333 332 331 332 332 331 331 333 334 333 331 331 331 331 331 329 329 332 331 329 329 330 330 328 324 325 330 332 332 330
313 313 313 313 313 314 313 314 316 317 315 316 316 317 317 317 319 328 334 333 329 328 329 333 338 342 344 343 343 343 343 343 345 345 345 343 343 343 342 341 341 340 340 339 338 336 335 334 333 334 336 337 337 337 337 336 335 335 336 337 337 335 335 336 335 334 334 332 331 329 330 331 330 330 331 334 332 330 330 331 331 331 330 330 330 330 330 330 330 331 330 327 326 329 332 332 330
313 312 313 313 313 314 314 314 315 315 316 316 316 317 318 316 320 328 332 331 329 327 330 334 337 340 343 343 341 343 343 343 344 345 345 344 343 342 342 341 342 342 341 340 338 336 335 334 333 333 335 336 336 337 337 337 337 337 337 337 337 336 336 335 335 334 333 333 331 329 329 329 329 329 330 332 332 331 330 330 331 331 330 330 329 330 330 330 331 331 331 330 328 330 332 333 331
314 313 314 313 312 313 315 316 316 316 316 315 316 316 317 317 320 328 334 335 334 332 334 337 338 340 342 342 341 342 343 343 344 344 345 344 344 343 343 343 342 342 342 340 339 336 334 335 335 334 335 336 336 337 337 337 337 337 337 337 337 337 336 336 335 334 333 333 331 329 329 328 329 330 330 330 331 331 331 330 330 330 330 331 330 330 329 330 330 330 332 331 329 331 334 333 330
315 314 313 314 312 313 315 315 315 317 316 315 317 317 317 320 320 324 332 336 335 333 335 337 337 338 340 341 341 342 342 342 343 344 344 344 344 344 344 344 343 343 342 341 339 336 335 336 337 337 336 336 336 336 336 336 335 336 337 336 336 335 335 335 334 334 333 333 332 330 329 328 328 330 332 331 331 331 331 330 330 329 328 329 329 330 329 329 329 330 332 331 330 331 332 330 329
315 314 313 313 312 313 315 315 316 316 316 316 317 317 317 321 322 323 328 332 333 334 337 337 337 338 339 340 341 341 341 341 342 343 343 344 344 344 344 344 343 343 342 341 339 338 337 337 337 337 336 335 335 336 335 336 335 335 336 335 335 334 335 335 334 334 333 333 332 330 327 327 329 331 332 332 331 330 329 329 330 329 328 327 328 329 329 329 328 330 332 332 331 331 331 329 327
314 314 313 312 313 315 315 316 316 316 317 317 316 316 318 322 323 325 329 332 334 336 338 338 339 338 337 339 340 340 340 341 341 341 342 343 343 344 344 344 343 343 342 341 338 338 337 337 336 336 335 335 335 335 335 335 335 334 334 335 334 334 334 335 334 334 333 332 332 331 328 328 330 331 331 331 331 330 330 330 329 328 327 327 328 329 330 330 327 328 331 331 331 332 332 331 327
314 314 312 312 313 314 313 314 317 316 317 318 316 317 320 323 324 326 330 333 334 334 336 337 338 339 338 339 339 339 340 341 341 340 341 342 342 343 343 342 342 342 341 339 338 337 337 337 336 335 335 334 334 335 334 334 334 333 334 335 334 334 334 335 335 334 333 332 333 333 332 330 331 331 330 330 330 329 329 330 329 327 325 327 328 328 330 330 326 328 331 329 329 331 331 331 328
315 315 313 312 314 314 314 315 316 316 317 318 317 316 319 321 323 326 329 331 332 332 334 336 337 338 338 339 339 340 340 340 341 340 339 341 342 341 341 341 340 340 340 338 337 337 337 336 335 335 334 334 334 334 334 334 334 333 333 334 334 334 334 334 334 334 333 332 332 333 333 332 331 331 330 329 329 327 328 330 331 330 329 329 328 327 329 330 326 328 329 327 328 329 329 329 328
314 315 315 314 314 314 315 315 315 315 314 317 317 314 316 321 323 326 329 330 332 333 335 336 335 337 337 338 339 340 340 340 340 340 339 340 341 340 340 340 339 339 338 337 335 336 337 336 335 335 334 334 333 334 334 334 334 334 334 333 334 333 333 334 335 334 334 333 332 332 332 332 331 331 331 331 331 330 329 331 332 332 332 331 330 328 329 331 329 328 328 328 329 328 327 327 328
313 315 315 315 315 315 315 315 313 313 313 317 317 314 315 320 323 327 330 330 332 332 334 335 334 335 335 337 338 339 340 340 339 338 338 339 340 339 339 339 338 337 337 336 334 335 336 336 336 335 335 335 334 334 334 334 334 334 334 334 334 333 333 333 334 334 334 333 333 333 331 332 331 332 332 332 333 332 332 331 332 333 333 332 331 331 331 331 330 329 329 330 329 329 329 328 329
313 315 315 315 315 314 315 314 313 314 316 317 317 315 315 317 323 328 329 331 332 332 332 332 333 334 336 337 337 338 339 338 338 337 337 338 338 339 339 338 337 336 336 336 335 335 336 336 336 336 335 336 335 335 334 333 333 334 335 335 334 334 333 333 333 333 332 332 332 332 331 331 331 332 333 332 333 333 333 333 333 333 333 333 332 332 332 331 330 330 331 330 330 330 329 328 329
315 316 314 315 315 315 315 314 314 315 316 314 315 315 314 316 323 327 328 330 332 331 331 330 331 333 334 335 335 336 336 336 336 335 336 337 336 337 336 336 335 336 336 336 336 336 337 336 336 335 336 336 336 335 334 334 334 333 334 334 334 334 334 334 333 333 332 331 330 330 330 330 330 331 332 333 333 333 333 333 333 333 333 333 332 332 332 332 331 331 331 331 330 330 329 329 329
316 315 315 315 315 315 315 314 314 315 315 313 314 314 312 315 322 323 325 329 330 331 330 329 330 332 332 332 332 333 334 333 334 335 334 334 334 334 333 333 334 335 335 335 336 337 337 336 335 335 335 335 335 335 335 334 334 333 333 333 333 333 333 333 333 333 333 332 331 331 329 329 329 330 332 333 333 333 333 333 333 333 333 333 332 332 332 333 332 331 330 329 329 329 328 329 330
316 315 315 315 315 315 315 315 315 315 314 314 314 314 313 314 318 322 326 329 330 331 329 328 330 331 331 330 330 331 332 331 331 332 332 332 332 332 331 332 333 333 334 334 335 336 336 335 333 333 332 332 333 333 333 333 333 333 333 332 332 332 332 332 333 332 333 332 331 331 331 329 328 329 331 332 333 332 333 333 333 333 333 333 332 332 333 333 331 330 329 328 327 328 328 329 330
315 314 313 314 314 315 314 314 315 315 314 314 314 315 314 314 319 325 329 328 329 329 329 328 329 329 330 330 329 329 330 330 330 330 330 330 330 330 330 331 331 331 332 333 333 334 334 332 331 331 330 329 329 329 329 331 332 332 332 331 331 331 331 331 331 331 332 332 331 330 330 329 328 329 330 331 331 332 333 333 332 332 332 333 333 333 333 332 330 329 329 328 327 327 328 329 330
314 314 313 313 312 314 314 313 314 315 314 315 316 314 314 319 324 328 329 328 328 329 329 329 329 329 329 329 329 329 329 329 329 329 328 328 328 328 328 328 328 329 329 330 330 330 330 330 329 330 330 329 329 329 329 330 330 330 330 331 330 331 331 331 331 331 331 330 330 329 329 329 329 330 329 330 331 332 333 333 332 332 332 332 332 333 333 332 330 330 329 328 327 327 327 329 329
313 313 313 312 313 314 314 314 314 315 314 316 316 313 317 325 328 328 329 328 329 330 330 330 329 329 329 329 328 328 328 328 328 327 326 326 326 326 326 326 326 327 327 328 328 328 328 329 328 328 329 328 328 329 329 329 329 329 329 330 330 329 330 330 330 331 330 329 329 327 327 328 329 329 329 329 331 332 332 332 332 332 332 331 331 331 332 331 330 330 329 328 328 327 327 329 329
313 314 313 312 312 314 314 313 314 315 315 316 316 314 319 326 328 328 330 330 329 330 329 329 329 328 328 327 327 326 326 326 325 324 324 324 324 324 324 324 325 325 326 326 326 327 327 327 328 328 327 327 328 328 328 328 329 330 329 329 329 329 329 330 329 329 329 329 328 326 326 327 327 327 328 329 331 332 332 332 332 332 332 332 330 330 330 331 330 330 329 329 328 327 326 328 329
314 314 313 313 313 313 313 314 316 315 315 316 317 320 324 327 327 328 330 329 329 329 329 328 327 327 326 326 325 325 324 324 323 323 323 323 324 324 324 324 324 324 324 324 325 326 325 326 326 326 326 327 328 328 327 327 328 329 328 328 328 327 328 329 330 330 328 328 328 326 325 325 325 326 327 329 330 331 331 332 332 332 332 331 329 328 329 330 330 330 329 329 327 326 326 328 329
314 313 313 314 315 315 314 315 317 315 315 318 321 325 328 328 328 328 328 329 328 328 328 327 326 326 325 325 324 323 323 322 322 322 322 322 322 323 323 323 323 323 323 324 324 325 325 325 325 326 326 327 327 328 326 326 327 327 327 326 325 326 327 329 330 330 329 328 327 327 326 325 324 324 326 328 329 330 331 331 331 331 331 330 329 329 329 330 330 329 329 327 326 327 328 330 329
313 312 313 314 315 317 315 314 315 314 316 320 320 324 327 328 328 328 328 329 329 328 327 326 325 325 324 324 323 322 322 321 321 321 321 321 321 321 321 322 322 322 322 323 323 323 324 324 324 325 326 326 327 327 327 326 327 327 327 326 324 325 328 329 330 330 330 330 328 327 327 325 323 324 325 327 328 330 330 331 331 331 330 330 330 330 330 330 330 329 327 326 327 329 330 329 328
314 313 314 314 314 315 315 314 315 314 316 321 321 322 323 324 327 328 328 329 329 328 326 325 325 325 324 323 322 322 321 321 321 320 320 320 320 320 320 321 321 321 321 322 322 322 322 323 323 323 324 325 326 327 327 327 327 327 328 327 325 325 327 328 329 330 330 330 330 329 329 327 324 324 327 328 328 328 328 329 331 331 330 330 331 331 330 329 329 329 329 329 330 330 329 328 329
314 314 314 314 314 314 314 314 315 313 315 320 322 321 319 321 327 329 327 328 328 327 326 325 324 324 323 322 321 321 320 320 319 319 319 319 318 319 319 320 320 320 320 321 321 321 321 322 322 322 323 324 324 325 327 327 327 327 327 327 325 325 327 327 328 329 330 330 330 330 329 328 326 325 328 328 327 328 328 329 331 330 330 330 331 330 329 327 328 330 331 330 330 329 328 328 328
313 313 313 314 314 315 315 315 314 313 313 318 320 319 319 324 329 328 327 327 327 327 325 324 323 322 321 321 320 319 319 318 318 317 317 318 318 318 318 318 319 319 319 320 320 320 320 320 321 322 323 323 323 324 325 326 327 327 327 327 326 324 325 327 327 328 329 329 329 329 329 328 326 326 328 327 326 327 327 329 330 329 330 330 329 330 329 328 329 330 331 331 330 328 327 327 328
314 314 313 313 314 314 315 314 314 314 313 315 317 317 321 327 328 327 326 327 327 326 324 323 322 320 319 318 318 317 317 317 316 316 316 316 316 317 317 317 318 318 318 319 319 319 319 319 321 322 322 322 323 323 323 324 326 327 327 327 326 323 323 326 327 327 327 329 330 330 330 329 327 328 328 327 327 327 327 329 329 329 330 330 329 330 330 330 330 329 330 331 329 326 326 328 330
Wind_Speed
2 2 0 1 2 3 3 4 5 4 4 7 7 4 2 2 1 3 3 2 2 2 2 3 2 4 4 4 3 6 13 9 6 4 1 4 9 13 10 11 17 21 19 20 24 24 22 20 18 16 15 13 13 14 14 14 14 12 11 9 8 8 8 8 10 11 10 10 11 12 12 14 16 17 19 20 20 20 20 19 18 17 18 18 18 18 17 16 15 14 13 13 13 13 13 12 12
0 1 1 2 4 2 3 4 5 4 6 7 7 5 4 6 5 5 1 2 2 5 3 1 3 5 4 5 3 3 10 15 12 10 7 8 11 11 9 12 17 21 19 18 23 24 22 20 18 16 14 13 12 13 14 14 14 13 11 9 8 9 9 10 11 11 11 11 11 11 12 15 17 19 20 20 20 21 20 20 19 17 18 18 18 17 16 15 14 13 12 13 14 14 13 12 11
2 3 3 2 4 3 3 4 6 5 7 8 5 4 4 5 6 4 3 4 4 2 1 1 4 3 4 5 3 2 7 11 12 12 11 11 11 11 11 13 17 20 18 18 22 23 22 21 18 15 14 12 12 12 13 13 14 13 11 9 9 10 10 12 12 12 11 11 12 12 13 15 17 19 20 21 20 20 20 20 18 18 18 17 17 16 14 14 13 13 13 12 13 13 12 11 12
3 4 5 3 4 5 5 5 5 7 6 7 4 5 5 6 6 5 3 5 4 1 2 1 4 2 4 2 2 5 9 9 10 9 10 10 10 12 14 14 16 18 17 18 20 20 21 21 18 15 13 12 12 12 13 13 13 12 11 10 10 11 12 13 13 12 12 12 12 12 13 15 16 18 19 19 20 19 20 20 18 17 17 17 16 15 14 13 13 14 13 13 12 12 12 12 14
5 5 6 5 5 3 3 4 4 7 6 5 2 4 4 6 7 4 3 4 3 3 3 3 1 3 1 6 5 3 7 7 9 8 8 10 13 14 13 15 16 17 17 18 18 17 20 20 17 15 13 11 12 12 13 13 13 12 11 11 11 11 12 13 13 13 12 12 12 13 14 14 16 17 17 17 18 18 19 20 18 17 17 16 15 14 13 14 14 13 13 13 13 13 14 15 16
5 5 5 4 4 2 3 5 5 8 5 4 2 4 5 6 5 3 3 3 2 2 4 4 1 3 4 8 9 7 5 3 7 7 7 11 14 14 13 15 16 16 17 18 16 16 20 20 17 15 12 11 11 12 13 12 13 12 12 11 11 11 13 13 13 13 12 12 12 13 14 14 15 15 15 15 16 17 17 19 19 18 17 16 14 13 13 13 13 13 13 13 14 14 15 17 18
6 5 5 5 3 3 6 6 6 6 2 2 3 3 5 3 3 4 3 1 2 3 6 4 3 3 5 7 8 10 6 4 4 4 7 13 15 13 13 15 16 16 17 18 16 16 20 19 17 14 12 11 11 12 12 12 12 12 12 12 12 12 13 13 13 12 12 12 12 12 13 14 14 13 13 12 13 14 15 17 18 17 16 15 13 13 13 13 13 13 12 12 14 16 17 18 19
8 5 5 6 4 4 7 6 6 4 1 1 3 1 1 4 5 5 4 2 2 3 7 6 6 5 5 5 6 7 6 7 5 5 10 14 15 13 12 14 17 17 17 18 15 17 20 18 16 14 12 11 11 12 12 12 12 12 12 12 12 12 12 12 12 12 12 13 11 11 12 13 13 12 11 11 11 11 13 14 15 16 15 14 13 13 14 14 14 13 12 12 14 17 18 19 20
7 5 4 6 5 4 6 6 5 4 3 1 2 2 5 8 7 6 6 4 2 3 8 9 8 6 8 8 8 9 5 7 6 8 11 14 14 13 12 12 16 16 17 17 14 17 19 17 15 13 12 11 11 12 12 11 11 11 11 11 11 11 11 11 11 12 12 12 12 11 11 12 11 10 10 10 10 11 11 12 13 14 14 14 14 14 15 14 14 13 12 12 15 17 18 18 19
8 6 4 5 4 5 6 6 4 3 4 3 2 4 6 8 8 7 8 5 4 6 7 9 8 5 9 10 9 7 4 6 7 9 12 13 13 13 12 12 14 15 16 16 15 16 18 17 15 13 12 11 12 12 12 11 11 11 10 10 10 11 11 10 11 11 11 12 12 11 11 11 12 10 9 10 10 11 11 11 12 12 12 13 14 15 15 15 15 13 13 13 15 16 17 18 18
8 6 4 5 5 6 5 4 4 3 2 2 3 3 4 7 8 7 9 6 5 7 8 10 7 7 9 8 8 4 4 6 7 10 12 13 13 12 13 12 13 15 16 17 15 16 17 17 15 13 12 12 13 13 12 12 11 11 10 10 9 9 10 10 10 10 11 11 11 11 11 11 11 11 9 9 10 11 11 11 11 11 11 12 13 14 15 17 16 13 13 14 15 16 17 17 18
7 5 5 6 5 5 3 3 3 2 2 3 2 1 3 6 7 7 8 7 7 8 11 10 5 7 9 8 7 5 6 7 8 11 13 13 13 12 13 12 13 14 17 17 15 16 16 17 15 14 13 12 13 13 13 12 11 10 9 9 8 8 8 9 9 8 9 9 9 10 10 10 10 11 10 9 9 10 11 12 12 11 11 10 11 13 15 17 16 14 13 14 15 16 17 17 17
8 4 5 5 3 3 2 3 2 2 3 3 2 4 4 6 7 6 6 7 9 9 11 7 2 5 6 9 9 7 7 7 10 12 12 13 13 12 13 13 13 14 17 17 15 16 16 16 16 15 14 13 13 13 12 11 10 9 9 8 8 7 7 8 8 7 8 8 8 7 8 9 10 11 11 9 9 9 10 11 12 12 11 10 10 11 14 16 15 14 13 14 15 16 17 17 17
8 4 5 4 2 3 4 3 2 4 3 5 5 6 3 4 5 5 6 9 9 6 8 5 2 6 6 9 9 9 8 8 11 12 13 13 13 12 13 13 13 15 17 16 15 16 15 15 15 15 15 14 14 14 12 11 10 10 9 8 7 7 7 7 7 7 8 8 8 8 7 8 10 11 12 10 10 10 10 11 12 12 12 11 10 10 13 15 14 13 13 14 14 15 16 17 17
7 5 5 4 3 4 5 3 2 5 3 6 5 6 1 1 2 4 5 6 7 5 7 5 2 3 2 4 8 12 11 11 12 13 15 14 14 14 14 14 14 15 16 16 16 16 16 16 15 15 15 14 14 14 14 12 11 10 9 9 8 7 7 7 7 7 8 8 9 9 8 9 11 11 11 11 11 11 11 12 13 12 11 10 10 10 11 13 13 12 12 13 13 14 15 16 16
6 5 5 4 5 4 5 4 3 4 4 6 6 6 1 4 1 3 1 0 7 6 5 4 3 3 6 7 10 15 14 14 14 15 16 16 14 14 14 13 13 14 16 16 16 16 16 16 16 15 14 14 13 13 13 13 12 11 10 9 8 8 8 8 8 8 8 8 8 9 9 10 11 12 12 11 12 13 13 13 13 12 10 9 9 8 9 11 12 11 11 11 12 12 13 14 14
7 6 6 4 5 4 4 7 5 2 5 6 7 7 0 6 3 1 2 1 7 8 5 6 6 6 9 11 13 15 15 15 15 15 16 15 14 13 14 13 12 13 14 16 16 16 16 16 17 16 15 14 14 13 13 13 13 12 11 10 10 9 9 8 8 8 8 8 8 9 9 10 11 12 12 12 13 14 15 14 13 12 11 11 10 9 9 10 11 11 10 10 10 10 11 13 13
8 6 6 5 6 4 4 5 2 3 4 6 8 8 3 5 5 3 5 5 8 8 6 8 7 7 8 11 13 14 14 14 15 15 15 14 13 13 13 13 12 13 13 14 16 17 16 16 17 16 15 14 14 14 14 14 14 13 13 12 12 11 10 9 8 8 8 8 9 9 8 7 8 8 9 11 12 14 16 15 15 14 14 14 12 12 12 11 11 11 10 9 8 8 9 10 11
9 5 5 6 4 2 2 1 3 3 4 7 7 8 5 2 4 5 7 8 10 9 8 9 8 8 9 11 12 13 13 14 14 14 14 13 13 13 13 13 12 13 13 14 15 17 16 15 16 15 15 15 15 15 14 14 14 13 12 12 12 11 10 9 8 8 8 8 8 7 7 7 7 6 7 9 11 14 17 17 17 16 16 16 14 14 14 13 11 11 10 9 8 7 7 7 8
10 6 6 5 2 2 2 1 2 4 6 6 7 8 4 3 1 4 6 9 10 9 10 10 8 10 12 12 12 12 13 14 14 14 14 12 12 12 12 12 12 13 13 13 15 16 16 15 16 16 15 15 15 15 15 14 14 13 12 11 10 10 10 9 9 8 8 10 9 8 9 9 9 9 10 10 10 13 16 17 18 17 18 18 17 16 15 14 12 10 10 10 9 8 7 6 6
7 7 7 1 1 2 4 2 1 4 6 7 8 7 3 3 2 4 6 10 9 8 8 6 9 14 15 14 13 12 14 14 14 14 14 13 11 12 12 12 12 12 12 13 14 15 16 15 15 15 15 15 15 15 15 15 15 14 13 12 11 11 11 10 10 9 10 12 11 10 10 10 9 10 11 10 9 10 13 16 17 17 19 19 18 18 17 16 13 11 11 11 10 9 8 8 7
5 9 10 3 2 4 3 3 1 4 6 8 8 7 5 5 3 4 7 7 4 3 4 3 8 16 16 16 14 13 14 14 14 13 13 14 12 11 12 12 11 12 12 12 13 15 16 15 14 14 14 14 15 15 15 15 15 13 13 13 13 13 12 10 10 11 12 13 12 11 10 10 9 10 10 11 10 10 12 14 16 16 18 20 20 20 19 18 13 11 11 11 10 10 10 9 8
7 9 11 9 7 5 2 2 1 4 7 8 8 7 7 6 2 2 6 1 8 7 4 5 10 14 16 16 14 14 15 14 14 13 12 13 12 11 12 12 11 12 11 11 13 14 15 15 14 13 13 14 15 15 14 13 13 11 11 12 12 12 13 12 11 12 13 13 13 12 12 10 10 10 11 11 11 11 12 13 15 15 15 18 21 20 19 19 14 11 12 12 12 12 11 10 8
10 7 8 10 9 8 6 4 3 5 7 8 8 8 7 4 0 1 4 1 8 6 6 9 10 12 15 15 13 13 14 14 13 13 12 11 11 10 10 10 10 10 11 12 13 13 13 13 13 13 12 13 13 13 12 11 11 11 11 11 10 12 13 13 12 13 14 13 14 14 13 12 10 10 11 12 12 12 12 13 14 14 13 15 20 20 19 20 16 13 13 13 13 13 12 11 9
13 9 7 8 8 8 7 6 5 5 7 6 6 7 5 2 2 1 5 4 5 5 9 10 10 12 14 14 13 12 13 14 13 13 12 10 11 10 9 9 9 9 10 10 10 10 10 10 10 10 10 10 10 11 11 11 12 12 10 10 10 12 12 12 13 13 13 13 14 15 14 13 11 10 11 12 12 12 12 12 14 15 14 14 18 20 21 22 18 14 14 14 14 13 12 11 10
12 14 10 8 8 7 6 6 6 6 6 5 4 4 2 0 2 4 5 4 4 6 9 11 11 13 14 13 12 12 12 13 13 12 10 9 10 9 8 8 9 8 8 7 7 9 10 10 10 9 10 10 10 11 11 12 12 12 11 11 12 11 11 12 14 13 13 14 15 15 14 14 12 11 12 12 12 13 13 13 14 15 15 15 17 19 22 24 21 15 14 14 14 13 12 11 10
7 14 13 10 9 8 7 7 7 6 7 6 6 4 3 2 5 5 7 4 5 9 10 11 12 13 14 13 12 11 11 12 12 11 10 9 8 8 8 7 7 7 7 7 7 8 9 10 11 11 12 12 11 11 11 12 12 12 12 12 13 12 11 13 14 13 14 15 15 15 15 15 15 13 13 14 13 13 14 15 15 15 16 17 16 18 21 24 23 18 14 14 14 13 12 11 10
4 9 11 11 10 10 10 9 8 7 6 5 6 5 5 5 6 5 9 7 8 10 11 11 12 13 13 13 11 10 10 10 10 9 9 9 8 8 8 7 7 7 7 7 7 7 8 8 9 10 10 11 12 11 11 12 12 13 13 13 13 14 13 13 13 13 14 14 15 15 16 17 17 17 16 15 14 14 15 15 15 15 15 16 16 17 20 23 24 20 16 15 15 13 13 12 11
6 6 7 9 9 10 12 11 9 8 5 4 6 6 7 9 6 7 10 9 10 11 12 12 11 13 14 13 11 10 9 9 8 8 8 8 7 8 9 9 7 6 5 6 7 7 7 7 7 8 9 9 11 12 13 13 14 13 14 14 14 14 14 13 12 13 14 14 14 15 16 17 18 18 16 15 15 14 15 15 15 15 15 16 16 15 18 22 25 23 18 17 16 14 13 12 11
8 8 7 6 7 9 13 12 9 8 5 4 8 7 8 11 9 10 10 9 11 12 13 13 12 12 13 12 11 9 9 9 8 8 8 7 7 9 10 8 6 5 4 4 5 4 4 5 6 7 8 8 10 12 13 14 14 14 14 15 15 14 13 12 11 13 14 14 14 14 16 16 16 17 17 17 16 14 16 16 15 15 16 17 17 16 17 20 24 23 19 18 18 15 13 13 13
8 9 7 6 6 8 13 12 11 10 6 7 10 6 7 12 12 11 10 9 10 12 14 13 12 12 12 12 11 9 8 8 8 7 7 7 7 9 8 5 5 5 4 3 3 2 1 3 6 7 8 9 10 12 12 12 13 13 14 14 14 13 12 12 13 13 15 15 15 15 16 15 15 17 18 18 17 15 15 15 15 16 19 19 18 18 18 18 20 20 18 18 18 16 15 14 14
8 8 7 7 7 8 12 11 13 10 6 10 12 5 6 11 12 12 10 9 9 12 15 13 11 12 12 12 11 9 8 7 8 7 7 7 7 7 6 5 5 4 3 2 2 1 2 2 4 6 7 9 10 11 12 13 13 13 14 14 13 12 13 14 14 14 15 16 16 17 16 14 15 18 19 19 18 16 15 14 15 17 20 20 18 20 19 17 17 17 18 19 18 16 16 15 14
8 8 7 9 9 8 10 11 12 8 6 11 12 7 5 10 10 11 10 9 9 10 14 14 11 11 11 12 11 10 8 7 7 7 7 7 7 6 5 5 4 4 4 3 2 2 3 4 4 5 5 7 9 10 11 13 14 13 13 13 14 13 14 15 14 14 14 15 17 19 18 15 15 17 19 20 18 16 15 15 15 15 18 18 17 20 21 18 17 17 18 19 19 18 16 16 15
8 9 6 8 12 9 9 11 11 10 8 11 13 9 4 10 9 10 9 9 10 11 14 14 10 10 10 10 11 10 8 8 7 8 7 7 7 6 6 5 4 4 4 3 3 3 3 4 5 5 6 6 8 9 11 13 13 13 12 14 15 14 14 14 14 15 14 16 18 18 18 16 16 16 18 20 19 17 16 16 16 16 16 16 17 20 21 20 18 18 19 19 20 19 17 16 16
9 10 6 7 11 10 10 10 11 13 10 11 14 9 6 11 8 8 8 9 10 11 12 11 10 10 9 10 10 9 9 7 7 8 8 7 7 7 7 6 4 3 3 2 2 3 3 4 5 6 7 6 7 9 11 12 12 12 13 14 14 13 13 14 14 14 15 18 18 17 17 17 16 15 17 18 18 18 16 17 17 17 17 18 18 19 20 20 19 20 20 20 21 19 15 16 17
11 11 8 8 10 10 9 9 9 12 12 12 13 12 9 10 8 7 6 7 7 9 9 8 8 9 8 9 9 9 9 7 7 8 8 8 8 7 6 6 5 4 4 3 3 4 4 5 4 5 5 5 5 8 9 11 12 13 13 12 12 13 12 13 14 13 14 16 16 15 16 17 15 14 15 16 17 16 15 17 18 17 18 19 20 19 19 20 22 22 20 21 24 20 16 17 19
11 11 10 9 10 10 9 8 7 7 10 12 13 14 10 8 8 5 4 5 6 8 8 7 7 8 8 8 9 9 9 7 7 8 9 8 8 8 7 7 6 6 5 4 4 5 4 4 2 3 3 4 5 7 8 10 12 12 13 13 13 13 12 12 13 12 13 14 14 13 15 16 15 13 14 14 15 15 13 15 17 17 17 19 20 20 19 20 23 22 20 22 25 22 20 21 20
10 10 10 9 10 10 10 8 7 4 7 10 13 12 7 8 7 4 2 5 6 4 5 5 6 7 7 8 8 9 8 6 5 6 7 6 6 7 7 7 7 6 5 4 4 4 3 2 1 3 3 3 4 5 6 8 10 10 11 13 13 11 11 12 12 12 13 13 12 12 14 15 14 14 14 13 14 14 13 14 15 16 16 18 21 22 21 18 20 22 20 21 22 21 21 22 21
9 8 9 9 9 9 9 8 6 4 5 7 13 11 6 8 5 6 3 3 3 2 1 0 3 6 7 7 8 8 8 7 5 4 5 5 4 5 6 7 6 5 4 3 2 1 1 1 1 3 3 2 3 5 5 7 10 11 11 12 13 12 12 12 11 12 13 13 12 12 13 14 14 14 13 14 14 14 14 14 16 16 17 18 21 23 22 18 18 21 21 23 23 21 19 20 22
9 9 8 8 10 9 8 8 7 4 3 3 12 10 5 7 6 7 5 4 4 3 4 4 2 3 5 6 6 7 7 7 6 3 4 4 3 3 4 4 4 3 2 1 0 0 1 1 2 2 3 2 3 6 6 6 9 11 12 13 14 13 13 11 11 12 13 13 12 13 14 14 14 14 14 14 14 14 14 15 17 18 19 20 20 22 24 21 20 20 22 25 26 24 21 20 22
10 10 9 8 13 10 5 9 9 5 1 3 10 9 5 7 7 6 6 5 4 4 5 5 5 4 4 6 6 5 6 6 6 4 3 4 4 3 3 2 1 1 1 1 1 1 1 1 3 3 3 4 4 6 6 5 7 9 10 12 13 13 13 11 11 11 13 14 13 14 15 14 14 14 15 15 15 16 16 16 17 18 20 21 21 23 24 23 23 23 23 25 26 24 23 21 22
10 11 10 7 12 12 7 12 11 6 6 8 11 8 6 8 8 7 6 6 6 6 6 6 7 6 6 8 6 5 5 5 5 4 3 3 4 3 3 1 1 0 1 3 2 1 1 2 2 3 4 5 5 6 6 4 5 6 7 8 8 10 10 9 9 10 11 13 14 14 15 13 13 14 16 16 17 18 18 18 18 18 19 21 24 25 25 25 26 25 24 24 24 23 22 22 21
8 12 12 6 7 10 9 11 11 7 6 9 11 9 5 9 8 8 7 7 9 8 7 8 8 8 7 8 6 6 7 6 5 4 2 2 3 3 2 1 2 1 1 3 2 1 2 2 1 2 2 4 5 5 6 5 5 5 6 6 8 10 10 10 11 11 11 12 13 14 15 14 13 14 16 16 17 19 19 19 19 20 20 22 24 26 25 26 26 26 26 24 24 23 22 22 22
6 13 15 10 7 9 10 10 10 6 4 7 11 10 5 7 9 9 9 9 10 9 8 9 10 11 10 9 8 8 9 7 5 4 3 3 3 3 2 2 3 2 2 3 3 2 3 3 2 1 1 3 6 7 7 6 6 5 6 8 9 11 11 11 12 12 12 13 13 14 15 15 15 15 17 17 18 19 20 19 19 20 21 22 25 26 24 24 25 26 26 24 23 22 21 22 21
5 12 15 11 9 9 9 9 8 5 3 6 11 11 7 7 9 9 10 10 10 9 9 10 10 12 11 10 10 10 10 8 7 7 5 4 2 2 2 2 4 5 5 5 5 4 5 5 4 2 2 3 6 9 9 8 8 7 8 9 10 10 11 12 12 12 12 13 13 14 15 15 16 17 17 18 18 19 20 20 19 20 22 23 25 25 23 24 26 25 24 24 23 23 22 21 21
6 11 11 8 7 8 7 8 7 5 6 8 12 13 9 6 10 9 10 10 8 9 9 9 10 12 12 10 9 10 9 8 8 7 5 3 2 1 2 3 4 5 6 6 6 6 7 7 7 7 6 6 7 8 9 9 10 9 9 10 10 11 12 13 13 12 12 13 13 14 15 15 17 19 18 18 18 19 20 20 19 20 21 23 24 24 23 24 26 24 22 23 23 23 22 21 20
7 10 10 8 7 6 5 6 6 6 8 10 14 17 12 6 9 9 7 6 5 7 9 9 10 11 12 10 10 10 9 8 7 7 5 4 3 3 3 3 3 4 6 7 8 8 8 9 9 8 8 8 8 9 11 13 12 11 10 11 12 13 14 14 14 14 12 12 13 14 14 14 16 19 19 18 18 18 19 20 19 18 18 21 22 22 23 24 25 24 22 21 22 22 21 20 20
8 10 10 9 8 6 6 6 6 7 8 9 13 16 13 8 7 7 7 7 6 7 8 9 9 9 10 10 10 10 9 9 8 8 8 6 6 6 6 6 6 5 4 5 7 7 8 7 7 6 7 9 10 10 12 14 14 12 11 12 14 14 14 15 16 15 13 13 14 14 14 14 15 16 16 17 17 17 18 19 20 19 18 20 22 21 22 24 24 23 21 20 21 22 21 20 20
10 10 10 10 9 8 8 9 8 8 6 7 12 14 10 4 7 9 10 9 7 8 10 10 10 10 10 10 11 11 10 11 10 10 10 9 10 10 9 8 7 6 6 5 5 5 5 6 6 6 6 7 7 8 9 9 11 11 12 14 15 16 16 16 16 16 15 16 16 15 15 14 14 14 14 16 16 16 17 19 20 20 19 21 22 21 22 24 23 21 20 20 21 22 21 21 20
12 11 11 11 9 9 10 9 9 9 5 6 10 12 9 5 8 10 11 10 10 12 13 12 13 14 14 14 14 13 13 13 13 13 13 12 11 10 9 8 7 7 7 6 5 5 5 5 5 5 5 5 5 6 6 6 7 8 9 11 12 14 16 18 18 18 17 16 17 17 16 15 14 14 14 14 14 16 17 18 19 19 17 18 21 22 22 23 22 20 19 20 21 21 20 20 20
12 10 10 10 8 9 9 8 11 12 8 7 8 8 7 6 8 9 11 12 12 14 14 14 15 16 17 16 15 14 14 14 14 14 14 13 12 11 11 10 9 8 8 7 7 6 6 6 6 6 6 6 6 6 6 6 6 7 7 8 9 10 12 14 18 20 19 16 16 17 16 15 16 15 14 13 13 14 15 16 18 18 17 18 20 23 23 22 21 20 20 21 21 20 19 20 20
10 9 10 10 10 9 6 3 4 6 8 8 6 3 3 6 8 9 11 12 13 15 15 16 16 16 16 16 14 13 13 13 13 14 14 15 15 15 14 13 12 10 9 8 8 7 5 5 5 6 6 6 6 7 7 7 6 6 7 8 9 10 11 11 12 15 16 16 16 17 16 16 16 16 15 15 15 13 12 15 16 16 17 18 19 21 21 21 21 20 21 22 21 20 20 19 19
7 9 10 6 6 7 6 3 2 3 7 6 4 4 6 6 7 9 11 12 12 13 15 16 16 15 15 15 13 13 13 13 13 13 14 15 15 15 15 14 13 12 11 10 8 7 5 5 5 5 6 7 6 6 6 6 5 6 7 8 9 11 11 11 10 11 12 13 14 15 15 16 16 17 16 16 16 14 13 14 16 17 18 19 20 21 21 21 20 20 21 22 21 20 20 19 18
7 9 11 5 2 4 7 6 4 7 8 5 5 8 10 8 7 10 12 13 13 12 14 15 15 15 15 14 13 12 12 12 12 12 12 13 13 12 12 12 13 11 10 9 8 8 7 6 6 6 7 8 7 6 5 4 5 5 6 7 8 9 9 10 11 11 11 11 13 14 15 16 17 17 17 15 15 16 16 17 17 18 19 20 21 21 21 21 20 19 20 20 20 20 20 20 19
8 9 11 8 5 6 8 8 8 10 8 6 8 11 10 9 9 13 15 14 14 13 12 13 13 15 15 14 12 12 12 11 11 11 10 11 11 11 10 9 9 9 9 8 8 7 7 6 7 8 8 9 8 6 4 4 4 5 6 6 7 8 9 10 10 11 12 12 13 13 14 15 16 16 16 14 14 16 18 19 19 18 20 21 20 20 21 20 19 18 18 18 19 19 18 18 18
9 10 10 8 7 7 8 7 7 10 8 7 10 10 8 7 9 15 18 16 15 14 12 11 13 14 13 12 11 11 11 10 10 10 10 10 9 9 9 8 8 8 8 8 7 7 7 7 8 8 8 8 7 5 5 5 5 5 6 7 7 7 8 9 9 10 11 12 12 12 12 13 15 15 14 13 13 16 18 19 20 19 20 21 20 20 20 19 19 19 18 18 18 17 17 17 17
9 10 12 10 7 5 8 7 5 7 9 8 9 9 6 4 6 14 18 16 15 15 13 13 14 14 12 11 10 10 10 9 10 10 10 10 9 9 9 8 8 8 8 8 8 7 8 8 8 8 8 8 7 6 5 6 6 6 6 7 6 7 7 8 8 8 9 10 11 10 11 12 14 15 13 11 12 16 18 19 19 17 18 19 19 19 19 19 19 19 18 17 17 17 16 15 13
12 9 11 12 9 8 9 8 5 6 7 7 8 9 5 3 4 11 15 14 15 17 16 16 16 15 12 11 11 10 10 9 10 10 10 10 9 9 9 9 9 9 9 9 9 8 8 9 8 8 8 8 8 7 6 6 6 6 7 7 7 6 5 6 7 7 8 9 9 9 10 12 14 14 13 11 13 16 17 17 17 15 15 16 16 17 19 19 19 18 17 16 17 18 16 13 12
Wind_Direction
301 295 320 215 151 149 212 227 247 206 236 257 247 255 155 131 54 232 212 188 230 76 357 291 247 232 227 319 342 51 32 20 19 20 93 84 127 138 154 163 161 161 156 162 171 168 166 169 167 168 167 169 172 175 180 181 182 181 184 183 179 170 158 148 140 135 126 114 103 102 110 116 119 121 125 131 134 133 130 122 118 117 116 115 114 113 112 111 110 108 105 102 99 100 101 100 97
223 214 171 166 142 195 225 208 258 225 226 252 243 236 112 120 180 210 152 41 18 52 33 327 184 209 258 307 291 130 54 41 47 68 96 114 126 136 155 160 156 155 153 156 165 166 165 168 167 167 164 167 172 178 183 184 185 185 187 187 177 164 155 147 141 137 128 117 108 111 118 122 122 122 126 131 131 131 129 123 119 119 117 116 116 115 115 113 111 106 100 97 98 102 101 97 93
166 161 162 169 164 235 244 205 251 248 236 257 244 171 129 162 168 128 64 26 27 40 95 105 162 184 249 224 194 102 72 55 63 88 104 112 121 138 149 150 152 153 154 155 161 165 165 166 166 165 164 165 170 179 185 186 188 188 188 184 172 161 153 146 143 140 132 121 118 120 125 126 126 127 130 132 131 130 128 123 121 123 121 120 119 118 118 114 108 101 98 98 100 101 96 91 90
166 166 163 195 215 222 227 222 245 254 248 257 255 120 156 184 134 92 60 17 6 238 158 177 169 158 279 201 97 64 81 69 64 90 117 124 135 143 150 152 153 154 155 153 157 165 165 164 165 164 163 164 169 178 184 187 188 187 186 178 169 160 152 148 147 145 136 128 127 127 129 132 131 132 135 136 135 132 129 125 124 127 127 127 125 123 120 111 103 100 101 101 100 97 93 92 92
162 170 165 199 243 226 231 245 241 246 250 265 281 102 153 157 113 70 34 4 331 228 201 249 150 142 264 36 22 52 82 77 72 82 125 140 140 143 154 155 151 153 155 152 155 164 166 163 163 163 160 163 167 176 182 185 186 184 181 174 167 160 152 152 153 149 141 134 134 132 131 136 137 138 139 140 138 136 135 133 132 134 133 134 130 125 117 108 102 101 102 102 99 97 96 95 93
156 174 169 202 259 283 244 241 229 234 245 283 308 98 142 130 81 21 356 343 318 249 215 252 320 159 139 67 49 59 67 88 88 82 124 137 136 145 154 152 151 155 154 153 157 162 165 162 161 161 158 160 165 173 179 181 183 181 177 172 166 160 157 159 158 153 146 140 140 137 135 140 142 143 144 143 141 140 142 142 143 142 141 140 135 125 116 108 104 103 103 102 100 99 97 95 94
166 183 183 203 221 222 241 239 238 236 208 283 300 88 141 143 8 333 329 302 180 214 217 232 257 200 127 111 85 69 57 80 107 107 141 139 135 147 147 148 152 156 155 154 162 163 163 161 159 158 155 158 164 170 174 177 180 178 175 172 168 165 165 165 161 155 151 148 146 142 140 143 145 148 147 145 144 142 145 147 149 148 146 144 137 126 118 112 108 106 104 104 102 100 98 97 96
172 191 202 223 211 204 241 243 244 252 117 43 290 329 222 277 310 297 296 254 177 194 209 203 225 223 131 130 105 89 65 75 108 116 137 140 137 145 143 149 153 155 157 156 167 165 159 159 158 156 153 155 161 167 169 174 177 175 174 173 172 169 171 169 162 157 156 154 152 147 144 145 146 149 149 145 144 145 147 148 152 152 150 147 138 127 120 115 111 111 111 110 105 102 100 98 95
181 210 214 234 237 212 237 240 238 251 244 252 254 252 272 280 286 280 270 242 215 221 204 189 218 219 137 127 102 103 73 67 101 114 132 141 140 143 144 155 157 158 158 158 167 164 158 156 157 155 152 153 156 165 167 171 172 170 172 176 175 170 173 172 165 163 161 159 157 151 147 148 148 150 152 149 147 149 150 149 152 153 153 149 139 129 121 118 118 121 121 115 108 104 101 98 95
191 221 227 234 243 229 230 230 226 234 235 243 259 255 265 272 272 266 255 239 205 208 186 176 210 199 137 127 108 109 76 78 106 119 134 145 144 144 148 158 161 160 157 160 167 164 159 154 157 155 150 150 154 163 165 168 169 168 170 173 173 169 173 174 171 167 166 163 160 157 151 153 155 154 156 157 156 154 154 152 153 154 153 147 139 130 123 125 128 128 123 115 108 103 100 98 96
199 209 235 240 231 235 234 224 219 209 180 218 242 238 264 278 273 259 244 233 204 193 166 174 197 176 151 117 105 111 91 99 115 125 137 148 145 143 148 155 162 161 157 163 168 166 161 154 157 156 151 151 154 162 165 169 171 170 170 171 171 169 171 175 178 172 170 168 165 163 156 157 159 161 162 163 165 163 161 158 157 157 152 147 139 132 128 130 131 128 121 115 107 101 100 98 95
221 190 208 238 235 237 243 246 237 226 200 209 184 96 298 280 263 244 223 207 194 185 171 185 182 168 168 119 114 118 105 110 122 133 139 145 143 144 146 149 159 159 162 167 166 165 163 156 156 156 154 151 154 160 165 169 172 172 170 172 175 173 172 173 180 176 170 168 168 168 162 163 163 167 172 169 171 171 169 165 164 162 158 152 142 136 133 131 129 127 120 112 105 101 100 97 96
234 202 212 239 246 248 249 258 243 233 209 165 58 6 307 259 242 233 213 190 184 176 166 179 172 184 157 111 125 127 117 120 127 135 137 143 146 147 144 146 153 159 168 168 163 165 164 160 159 159 156 152 154 159 164 168 169 171 170 172 176 176 173 170 177 179 174 171 167 165 168 176 173 173 178 178 178 178 176 173 171 168 166 162 153 146 137 131 128 126 120 112 107 104 101 99 98
230 226 239 241 231 253 245 247 198 202 175 104 39 352 296 242 250 244 214 181 167 154 141 142 185 194 152 124 142 141 137 133 133 137 139 144 145 146 144 148 155 161 168 163 160 166 167 163 163 162 157 156 156 158 162 165 168 167 164 163 162 162 163 167 174 183 188 186 176 169 181 196 189 182 183 185 186 185 184 181 179 177 173 169 167 158 142 133 131 129 123 117 110 106 105 102 100
224 222 244 250 231 228 218 229 193 199 129 82 32 357 275 196 247 216 214 181 134 116 141 143 189 199 162 141 150 149 147 136 135 138 139 138 137 142 143 148 158 163 165 160 158 164 168 164 164 164 161 161 160 159 160 161 164 160 156 152 150 153 156 161 168 180 193 196 192 188 197 210 202 191 189 192 193 191 190 189 187 184 177 177 177 169 152 141 139 137 128 121 115 110 107 104 102
218 218 230 245 232 209 192 183 180 198 104 77 35 2 200 132 144 190 238 120 121 128 150 126 96 64 47 73 120 142 144 137 138 136 134 132 132 140 143 149 157 163 165 164 161 163 168 164 164 167 166 167 163 164 163 160 160 157 156 155 156 160 161 164 168 178 186 190 196 195 202 215 208 193 191 197 196 193 197 197 192 188 182 186 186 177 170 156 150 146 133 125 120 117 111 107 106
204 225 229 229 223 205 176 176 171 154 90 65 37 13 217 139 137 183 117 162 140 139 121 93 89 76 70 90 119 138 141 139 139 136 134 134 135 139 145 151 158 166 170 170 168 168 172 168 169 171 171 173 168 170 169 164 164 165 165 165 167 167 170 175 181 190 187 184 188 190 195 211 210 195 189 194 195 195 200 201 197 193 187 193 193 188 194 181 166 157 145 133 126 125 119 112 110
196 220 224 220 220 194 159 170 122 53 59 29 27 22 352 152 148 159 163 162 148 145 127 113 96 79 91 108 126 138 142 142 139 138 138 139 141 145 152 157 162 167 170 174 174 174 174 173 175 175 175 178 177 177 176 176 176 176 176 175 176 177 184 191 197 202 194 189 188 186 189 206 214 202 194 193 191 196 201 201 200 198 194 198 201 198 202 200 186 172 161 146 135 133 126 115 111
211 226 224 227 219 123 102 96 46 14 2 4 17 18 359 125 141 180 186 161 158 161 142 139 114 94 112 122 133 141 145 145 143 144 143 144 147 153 158 161 165 168 171 176 177 178 175 176 179 179 181 182 184 184 182 187 186 184 187 187 187 190 196 198 201 201 194 203 200 184 189 204 213 209 207 208 199 197 201 201 201 202 200 202 204 204 206 207 199 183 172 161 149 143 132 118 111
218 226 229 226 197 110 141 200 13 1 348 352 3 1 10 64 88 221 193 160 173 174 153 167 157 132 135 138 144 145 148 148 146 148 147 148 150 157 162 161 167 171 173 176 181 182 179 184 186 183 186 187 189 189 185 192 192 188 192 196 197 201 203 199 204 206 200 212 214 200 203 205 205 208 211 224 225 207 203 203 203 204 204 205 205 206 210 211 205 192 179 170 165 154 141 134 128
205 216 237 222 117 221 175 180 319 6 347 340 347 344 11 21 315 252 196 169 180 173 146 171 170 151 148 148 152 151 151 150 148 150 147 150 156 159 164 163 166 170 172 177 185 185 183 191 191 187 190 191 193 193 192 196 196 193 195 198 199 204 209 207 210 213 207 214 217 212 214 209 206 213 211 220 233 222 213 208 206 207 207 206 206 207 211 212 206 199 188 176 174 164 158 160 161
210 218 243 265 221 230 146 125 27 0 330 327 336 338 355 334 272 233 220 187 132 103 97 103 148 153 153 151 154 153 153 154 151 151 148 152 158 158 161 164 165 168 171 177 185 187 188 193 192 190 192 194 196 199 203 203 202 200 198 199 199 204 213 215 214 214 215 220 220 216 220 217 211 214 213 212 217 222 225 214 205 209 209 207 208 207 210 211 202 200 197 184 176 172 174 178 179
228 220 230 242 239 238 176 150 333 333 313 320 334 334 332 303 227 187 232 224 46 45 66 109 133 148 151 147 152 155 156 158 152 152 154 153 153 154 159 163 164 168 175 180 185 188 190 193 194 191 192 200 202 202 206 205 204 200 197 201 202 205 212 215 216 217 223 227 223 219 223 224 219 217 217 214 212 214 223 219 206 206 207 207 208 207 209 207 195 196 200 190 184 180 184 189 188
231 233 217 228 236 239 242 250 272 298 300 313 323 315 303 278 167 138 205 93 42 54 98 120 134 146 145 140 149 156 156 158 154 155 159 155 151 151 155 163 165 169 183 188 186 189 191 193 197 193 193 203 204 200 199 199 203 200 203 214 215 213 216 216 219 224 227 226 224 224 225 224 221 220 219 216 216 214 220 222 212 211 209 206 208 207 210 207 193 196 202 196 191 183 185 186 183
226 241 225 221 229 233 240 250 254 270 285 299 305 296 284 278 332 218 181 124 70 88 113 126 138 140 137 138 149 155 155 156 157 158 158 155 157 155 150 159 171 176 187 192 184 188 191 190 197 197 197 203 204 203 202 204 209 210 214 226 231 230 225 222 227 231 229 227 229 230 228 224 218 221 222 218 219 217 217 217 213 217 213 204 206 207 212 211 197 196 204 200 195 189 190 189 185
213 228 233 223 223 222 226 233 239 253 266 273 277 267 241 217 257 194 164 125 108 126 128 132 137 135 134 138 147 153 156 157 159 160 156 154 160 161 157 160 172 176 180 185 179 188 193 192 198 200 199 203 205 207 207 212 218 219 220 225 234 236 230 227 231 233 233 234 234 234 230 224 219 220 225 221 219 219 218 215 214 219 218 211 208 206 213 215 206 202 204 201 197 195 198 200 195
201 223 232 233 232 225 227 234 240 247 250 253 253 235 158 175 234 183 152 154 145 144 143 141 139 136 135 138 144 151 156 158 159 159 157 156 159 162 168 171 172 172 171 170 172 185 191 192 198 201 204 205 204 206 207 216 224 224 225 228 233 233 229 231 234 238 242 242 238 237 232 228 225 221 223 222 219 221 219 216 214 217 220 220 213 207 214 218 214 210 206 203 200 196 198 202 198
200 220 229 232 237 234 233 235 232 235 232 223 231 217 161 193 233 151 139 165 162 154 154 150 145 138 136 137 139 146 152 156 156 157 159 157 160 167 175 180 179 174 170 168 171 185 188 190 201 205 208 207 208 212 213 220 224 225 228 231 233 235 237 238 240 244 244 241 240 238 233 233 234 228 224 224 222 221 218 216 217 216 218 223 220 214 218 219 215 214 211 209 205 200 201 204 200
210 213 228 213 218 228 223 219 214 218 211 185 213 199 172 194 198 134 140 165 162 163 162 154 149 140 136 133 131 139 147 152 151 153 159 158 161 171 176 180 182 175 172 175 180 192 192 191 203 204 201 202 211 217 218 223 223 224 231 233 235 239 242 243 247 249 244 243 245 242 236 234 238 239 237 231 226 222 217 215 218 219 218 221 221 218 221 220 215 215 217 215 211 208 210 214 210
210 213 239 203 199 215 204 201 199 208 201 183 215 204 175 183 168 146 157 168 164 170 169 159 152 140 133 128 127 135 142 147 150 151 157 158 163 173 177 181 181 173 173 178 181 191 185 178 195 207 203 201 213 219 221 226 225 228 235 236 237 239 242 246 251 253 253 255 251 247 242 238 241 247 247 239 231 227 221 217 220 223 221 220 220 217 220 221 216 214 216 215 213 212 212 216 216
205 202 229 221 211 192 179 183 189 197 178 182 219 224 178 169 156 155 166 173 177 177 173 164 151 138 129 123 124 129 135 142 146 146 148 153 167 176 179 182 181 176 174 167 164 183 185 178 197 214 217 213 223 229 227 231 232 234 238 238 240 241 246 253 254 254 256 257 252 247 245 245 248 246 244 241 236 233 230 226 227 227 223 221 219 217 217 220 218 215 216 214 212 213 214 216 219
204 198 206 215 216 171 157 173 192 193 161 181 215 223 160 154 150 158 166 177 189 184 177 167 147 133 125 122 122 122 127 134 139 142 145 154 170 176 176 180 182 176 164 148 145 195 258 242 227 227 226 220 223 229 229 232 233 237 241 243 246 248 253 256 256 255 254 253 248 246 247 249 252 249 247 244 238 235 235 234 233 227 223 220 217 218 218 218 218 218 219 218 214 212 213 215 219
200 210 204 194 204 179 152 169 191 194 165 179 211 233 148 134 143 154 164 178 187 189 181 169 144 125 121 123 122 120 122 128 137 147 152 160 171 173 177 179 176 172 164 165 178 213 249 257 256 248 234 222 221 225 229 234 235 237 242 247 252 255 256 256 257 257 253 249 245 245 248 251 255 256 252 246 240 237 238 239 238 233 230 223 216 218 218 216 218 219 218 217 214 211 211 213 216
187 210 213 188 199 194 157 158 173 187 191 184 206 234 130 113 131 148 166 181 187 194 184 173 149 122 119 122 122 120 118 124 141 157 159 165 175 175 186 190 179 175 173 177 197 229 252 253 253 249 239 227 224 227 232 238 240 241 241 246 254 257 256 255 259 261 257 250 246 246 248 254 260 258 252 247 244 243 241 239 237 238 239 232 224 223 219 216 217 217 216 214 212 212 212 212 214
185 196 203 188 196 202 177 156 161 180 197 190 194 209 139 115 116 131 161 182 192 195 184 176 153 125 119 119 120 118 113 119 138 153 155 165 183 183 193 203 195 189 199 216 242 257 260 257 249 243 242 233 228 234 238 241 243 244 243 247 255 260 258 256 258 263 260 255 252 247 247 254 259 254 248 245 245 244 244 244 238 236 241 239 233 230 222 216 217 218 216 215 212 210 210 210 213
186 187 194 190 188 202 183 140 149 177 192 189 187 200 178 131 107 110 144 171 195 196 183 181 159 134 122 119 121 117 112 116 128 144 155 168 187 191 199 210 209 213 225 240 261 280 279 266 252 250 257 253 252 253 250 247 243 243 245 250 258 264 264 261 262 264 260 259 258 252 249 253 254 252 250 246 243 242 243 243 234 230 240 240 234 233 226 217 219 221 215 215 215 208 205 209 213
184 186 197 195 186 193 174 134 136 174 196 187 183 200 187 113 91 102 124 165 196 199 190 193 172 144 128 126 126 120 114 117 128 145 160 175 192 198 208 216 221 227 230 233 258 283 281 263 253 259 257 255 264 262 257 260 256 248 248 252 257 266 273 270 268 265 261 263 264 257 250 250 250 254 256 250 240 232 233 234 227 224 234 240 241 241 234 220 220 222 215 217 218 211 210 214 214
189 194 197 195 194 185 165 146 133 166 216 187 182 199 165 91 84 103 131 182 186 198 205 208 190 163 143 136 129 122 119 125 132 142 157 177 199 204 213 221 228 235 233 238 257 273 273 274 286 284 278 267 268 261 254 263 265 256 256 258 256 260 272 275 273 269 267 267 268 260 250 248 251 253 251 244 236 231 235 237 230 225 229 238 243 243 238 224 219 221 215 213 214 212 216 219 215
197 201 198 197 193 163 143 141 130 168 232 179 182 198 133 98 92 91 115 167 121 59 33 234 217 194 170 148 131 130 133 135 134 137 153 172 202 205 212 222 230 237 241 250 259 256 295 341 305 302 321 322 293 283 267 260 262 260 262 265 262 261 265 271 273 270 270 271 270 266 257 252 253 252 246 238 235 237 240 239 235 229 230 237 240 237 233 222 217 218 215 215 213 209 213 218 218
205 202 199 198 187 170 156 158 139 146 265 183 181 192 136 123 119 97 101 107 80 61 69 64 74 184 176 147 137 148 151 144 140 148 164 163 180 196 203 220 226 235 253 302 337 108 69 7 343 337 326 309 284 284 277 266 268 264 256 254 257 265 267 266 267 268 271 270 266 267 263 256 254 253 247 240 238 242 243 241 237 231 231 235 234 232 229 219 214 213 214 220 216 208 206 213 220
205 205 208 197 183 189 170 152 147 134 180 191 179 182 165 161 155 128 116 112 104 90 88 81 82 113 152 143 140 154 160 157 151 164 192 162 158 170 177 201 216 216 241 18 15 50 69 33 0 350 336 333 315 295 288 274 272 267 252 244 245 257 265 266 270 273 274 271 267 268 266 261 260 259 255 250 247 247 247 245 240 233 231 231 228 228 227 220 215 212 215 220 217 213 213 216 220
199 206 221 207 180 188 149 142 163 173 183 189 193 198 175 169 166 140 134 135 124 108 103 95 85 101 142 141 128 129 140 155 159 168 197 171 158 161 160 165 118 93 339 357 12 52 49 37 8 352 348 337 317 303 299 285 279 275 259 250 252 262 268 270 271 268 271 275 276 275 273 270 269 267 263 259 255 251 249 247 242 236 231 229 226 224 224 221 218 216 217 220 218 218 221 222 223
197 193 210 219 184 188 163 160 186 199 181 177 201 221 177 165 170 143 142 144 129 116 103 92 81 86 111 120 117 125 125 128 149 157 172 153 135 142 134 112 109 91 346 333 349 44 35 35 29 0 351 320 307 304 298 287 279 276 266 261 263 266 267 267 265 262 266 274 278 282 284 280 276 274 269 263 259 256 252 246 240 236 231 228 224 220 219 219 217 217 219 221 219 217 220 224 224
196 171 189 204 199 193 181 185 204 204 140 151 198 228 218 180 168 143 153 151 129 117 100 88 82 78 83 89 93 112 116 118 135 133 131 128 126 143 135 138 190 226 277 304 321 357 11 15 26 356 317 301 295 294 293 285 273 270 269 264 262 263 265 265 266 269 275 276 276 281 286 285 284 282 277 270 263 258 255 248 240 237 231 224 221 218 217 215 213 216 218 218 218 216 217 221 225
179 159 186 200 205 210 201 201 209 203 179 181 195 214 226 184 151 142 166 161 130 114 102 91 89 84 82 80 78 92 102 106 112 108 108 118 135 188 202 231 248 268 294 308 316 330 337 335 336 321 287 272 275 282 289 285 275 269 268 267 267 270 271 271 273 273 277 280 279 279 283 288 291 287 280 275 266 256 254 251 242 237 230 221 217 217 216 215 213 214 214 213 214 214 213 217 224
152 158 188 195 206 221 221 218 210 190 209 213 187 191 215 179 148 161 178 168 135 114 102 94 98 93 87 85 81 89 96 97 108 114 112 101 74 320 286 285 286 288 295 303 303 305 311 310 307 299 284 270 264 272 280 280 274 271 272 272 272 272 270 272 275 271 271 276 278 277 279 285 291 291 284 276 266 256 252 249 240 235 229 221 218 216 215 215 212 210 211 212 213 213 215 217 222
150 169 192 191 202 214 219 230 225 195 210 219 186 187 213 196 159 166 163 149 122 111 106 100 104 97 87 85 84 90 97 97 102 107 96 72 46 16 356 347 340 312 297 299 298 297 300 299 298 297 294 288 280 273 273 272 270 266 264 265 267 269 267 265 266 264 265 269 271 271 273 278 287 290 285 274 265 256 249 244 237 232 226 221 220 218 215 212 208 205 207 211 212 213 216 220 223
180 189 193 191 195 200 205 206 216 214 210 203 176 183 214 213 165 149 128 119 103 102 109 108 108 102 93 88 86 88 92 92 86 80 75 63 53 47 39 39 35 14 342 320 311 305 301 302 310 317 312 303 297 289 281 277 275 270 267 269 271 270 268 266 266 265 264 262 262 263 269 277 282 283 278 272 266 255 245 240 236 231 225 220 218 215 211 207 203 203 204 208 212 213 216 222 224
203 199 190 193 188 188 204 196 198 213 197 165 162 179 207 184 125 130 124 115 105 99 103 109 111 109 105 98 92 87 85 85 81 74 71 67 63 59 53 52 50 41 28 5 342 330 321 325 335 341 333 319 311 304 295 287 284 283 282 283 283 284 284 281 276 275 273 267 263 262 265 272 277 276 271 267 265 255 244 240 237 232 229 227 220 212 208 204 202 203 204 209 212 213 217 221 223
203 201 190 194 188 184 199 194 193 202 177 137 160 180 186 132 118 129 119 110 110 104 101 108 112 110 107 100 95 91 86 81 77 73 69 66 62 57 53 49 46 41 35 29 20 8 5 8 3 358 353 343 335 325 313 303 297 294 289 285 286 288 288 287 284 283 280 271 264 261 262 267 273 272 270 265 259 253 247 241 236 231 228 226 216 207 204 204 204 204 206 210 214 214 216 219 222
201 207 201 202 200 190 197 198 197 197 169 136 161 183 180 152 129 116 112 114 114 109 109 110 108 107 103 97 91 87 82 76 73 72 69 67 62 57 55 51 46 39 32 29 26 27 34 30 15 7 2 356 350 339 329 321 309 302 297 291 291 288 282 282 282 284 284 272 260 260 262 266 271 270 267 263 255 252 249 240 233 227 222 215 206 203 203 203 203 205 208 213 215 215 216 221 222
200 210 210 209 210 198 188 204 206 185 159 144 159 159 104 120 121 113 116 118 115 116 117 112 106 104 100 93 89 85 81 77 75 73 71 70 68 65 63 58 49 38 31 26 23 28 35 27 13 5 357 351 347 342 341 336 321 315 316 311 310 308 299 283 269 275 284 273 256 256 259 263 267 264 261 259 252 248 242 234 229 220 212 207 201 203 205 204 204 207 210 213 214 216 217 218 216
183 205 208 208 231 214 172 122 61 149 167 157 154 135 112 126 140 140 136 128 129 128 120 113 108 105 100 93 91 87 83 81 78 75 72 68 64 61 58 53 46 39 36 33 26 26 23 17 13 359 348 345 347 347 340 334 322 317 323 328 333 328 308 289 275 275 282 270 253 252 257 261 261 256 254 255 249 239 226 220 219 209 203 204 203 204 205 204 205 207 209 210 212 216 217 212 208
182 199 197 177 270 236 188 177 166 184 188 167 170 171 160 166 163 155 153 143 139 133 121 118 112 105 101 96 94 90 85 84 79 74 69 63 57 53 49 45 40 37 36 31 23 20 13 7 2 350 345 344 347 347 332 322 318 311 317 330 342 338 310 292 287 278 270 260 250 251 255 256 255 252 250 250 244 234 219 209 209 206 202 205 205 201 199 199 201 204 207 209 211 213 210 206 203
217 205 189 184 205 197 196 201 188 193 192 158 173 181 177 184 171 165 169 157 144 137 128 126 117 110 107 102 99 92 84 80 75 70 66 63 57 50 46 41 32 27 25 19 13 11 3 356 351 347 345 343 342 344 336 326 317 308 314 323 337 340 318 299 285 265 254 250 246 246 247 245 246 249 248 245 238 230 219 205 202 207 206 204 202 198 195 196 199 202 200 201 206 207 202 199 200
227 211 189 200 216 196 197 205 196 201 193 162 173 185 188 186 167 170 173 161 150 145 137 129 120 116 113 104 97 87 79 75 72 71 68 63 58 49 42 38 30 22 18 14 8 4 359 354 351 352 356 357 352 348 338 327 319 313 312 313 327 339 325 307 291 267 254 249 242 238 236 234 239 243 241 239 232 223 216 205 200 207 211 205 198 195 197 198 201 200 195 193 199 201 199 198 196
204 204 188 192 206 202 198 201 214 218 202 180 180 186 178 139 140 165 167 158 152 145 135 127 120 118 112 103 99 91 85 81 75 72 68 61 53 45 38 32 28 22 17 16 10 6 4 1 1 4 12 14 6 356 344 331 322 316 312 309 314 322 318 313 308 287 263 250 240 232 226 227 234 236 230 228 224 214 209 206 203 206 212 210 202 197 198 200 199 197 192 189 192 196 198 198 192
191 198 196 192 191 195 192 189 204 223 213 195 190 185 156 93 132 158 158 154 146 138 131 125 122 121 115 107 105 100 93 84 75 70 65 58 49 41 36 34 35 28 20 17 14 12 8 4 9 20 22 16 8 1 349 334 322 309 306 303 298 303 307 309 318 305 265 240 232 227 223 226 231 230 223 213 211 210 210 211 210 209 213 212 207 205 203 200 197 193 188 184 188 192 192 191 193